Year,Month,Day,Hour,Minute,Value (Times are PST for temperature in C)
2014,07,14,00,00,27.70
2014,07,14,00,01,27.70
2014,07,14,00,02,27.70
2014,07,14,00,03,27.60
2014,07,14,00,04,27.50
2014,07,14,00,05,27.50
2014,07,14,00,06,27.40
2014,07,14,00,07,27.40
2014,07,14,00,08,27.30
2014,07,14,00,09,27.30
2014,07,14,00,10,27.20
2014,07,14,00,11,27.20
2014,07,14,00,12,27.10
2014,07,14,00,13,27.10
2014,07,14,00,14,27.00
2014,07,14,00,15,27.00
2014,07,14,00,16,26.90
2014,07,14,00,17,26.80
2014,07,14,00,18,26.80
2014,07,14,00,19,26.70
2014,07,14,00,20,26.70
2014,07,14,00,21,26.70
2014,07,14,00,22,26.60
2014,07,14,00,23,26.60
2014,07,14,00,24,26.50
2014,07,14,00,25,26.50
2014,07,14,00,26,26.40
2014,07,14,00,27,26.40
2014,07,14,00,28,26.40
2014,07,14,00,29,26.40
2014,07,14,00,30,26.40
2014,07,14,00,31,26.30
2014,07,14,00,32,26.30
2014,07,14,00,33,26.30
2014,07,14,00,34,26.30
2014,07,14,00,35,26.20
2014,07,14,00,36,26.20
2014,07,14,00,37,26.20
2014,07,14,00,38,26.20
2014,07,14,00,39,26.10
2014,07,14,00,40,26.10
2014,07,14,00,41,26.00
2014,07,14,00,42,25.90
2014,07,14,00,43,25.90
2014,07,14,00,44,25.90
2014,07,14,00,45,25.80
2014,07,14,00,46,25.70
2014,07,14,00,47,25.60
2014,07,14,00,48,25.60
2014,07,14,00,49,25.50
2014,07,14,00,50,25.40
2014,07,14,00,51,25.40
2014,07,14,00,52,25.40
2014,07,14,00,53,25.40
2014,07,14,00,54,25.40
2014,07,14,00,55,25.30
2014,07,14,00,56,25.30
2014,07,14,00,57,25.30
2014,07,14,00,58,25.30
2014,07,14,00,59,25.30
2014,07,14,01,00,25.30
2014,07,14,01,01,25.30
2014,07,14,01,02,25.20
2014,07,14,01,03,25.20
2014,07,14,01,04,25.20
2014,07,14,01,05,25.10
2014,07,14,01,06,25.10
2014,07,14,01,07,25.10
2014,07,14,01,08,25.10
2014,07,14,01,09,25.10
2014,07,14,01,10,25.10
2014,07,14,01,11,25.10
2014,07,14,01,12,25.10
2014,07,14,01,13,25.10
2014,07,14,01,14,25.00
2014,07,14,01,15,25.00
2014,07,14,01,16,25.00
2014,07,14,01,17,24.90
2014,07,14,01,18,24.90
2014,07,14,01,19,24.90
2014,07,14,01,20,24.90
2014,07,14,01,21,25.00
2014,07,14,01,22,25.00
2014,07,14,01,23,25.00
2014,07,14,01,24,25.00
2014,07,14,01,25,25.00
2014,07,14,01,26,25.00
2014,07,14,01,27,25.00
2014,07,14,01,28,24.90
2014,07,14,01,29,24.90
2014,07,14,01,30,24.90
2014,07,14,01,31,24.90
2014,07,14,01,32,24.90
2014,07,14,01,33,24.90
2014,07,14,01,34,24.90
2014,07,14,01,35,24.90
2014,07,14,01,36,24.90
2014,07,14,01,37,24.90
2014,07,14,01,38,24.90
2014,07,14,01,39,24.90
2014,07,14,01,40,24.90
2014,07,14,01,41,24.90
2014,07,14,01,42,24.90
2014,07,14,01,43,24.90
2014,07,14,01,44,24.80
2014,07,14,01,45,24.80
2014,07,14,01,46,24.80
2014,07,14,01,47,24.80
2014,07,14,01,48,24.80
2014,07,14,01,49,24.80
2014,07,14,01,50,24.70
2014,07,14,01,51,24.70
2014,07,14,01,52,24.70
2014,07,14,01,53,24.70
2014,07,14,01,54,24.70
2014,07,14,01,55,24.70
2014,07,14,01,56,24.70
2014,07,14,01,57,24.70
2014,07,14,01,58,24.60
2014,07,14,01,59,24.60
2014,07,14,02,00,24.60
2014,07,14,02,01,24.60
2014,07,14,02,02,24.60
2014,07,14,02,03,24.50
2014,07,14,02,04,24.50
2014,07,14,02,05,24.50
2014,07,14,02,06,24.50
2014,07,14,02,07,24.50
2014,07,14,02,08,24.50
2014,07,14,02,09,24.50
2014,07,14,02,10,24.50
2014,07,14,02,11,24.50
2014,07,14,02,12,24.50
2014,07,14,02,13,24.60
2014,07,14,02,14,24.60
2014,07,14,02,15,24.60
2014,07,14,02,16,24.70
2014,07,14,02,17,24.70
2014,07,14,02,18,24.70
2014,07,14,02,19,24.70
2014,07,14,02,20,24.70
2014,07,14,02,21,24.70
2014,07,14,02,22,24.80
2014,07,14,02,23,24.80
2014,07,14,02,24,24.80
2014,07,14,02,25,24.80
2014,07,14,02,26,24.80
2014,07,14,02,27,24.80
2014,07,14,02,28,24.80
2014,07,14,02,29,24.80
2014,07,14,02,30,24.80
2014,07,14,02,31,24.80
2014,07,14,02,32,24.80
2014,07,14,02,33,24.80
2014,07,14,02,34,24.80
2014,07,14,02,35,24.70
2014,07,14,02,36,24.70
2014,07,14,02,37,24.70
2014,07,14,02,38,24.70
2014,07,14,02,39,24.70
2014,07,14,02,40,24.70
2014,07,14,02,41,24.70
2014,07,14,02,42,24.70
2014,07,14,02,43,24.70
2014,07,14,02,44,24.60
2014,07,14,02,45,24.60
2014,07,14,02,46,24.60
2014,07,14,02,47,24.60
2014,07,14,02,48,24.60
2014,07,14,02,49,24.60
2014,07,14,02,50,24.50
2014,07,14,02,51,24.50
2014,07,14,02,52,24.50
2014,07,14,02,53,24.50
2014,07,14,02,54,24.40
2014,07,14,02,55,24.40
2014,07,14,02,56,24.40
2014,07,14,02,57,24.40
2014,07,14,02,58,24.30
2014,07,14,02,59,24.30
2014,07,14,03,00,24.30
2014,07,14,03,01,24.30
2014,07,14,03,02,24.30
2014,07,14,03,06,24.30
2014,07,14,03,07,24.30
2014,07,14,03,08,24.20
2014,07,14,03,09,24.20
2014,07,14,03,10,24.20
2014,07,14,03,11,24.20
2014,07,14,03,12,24.10
2014,07,14,03,13,24.10
2014,07,14,03,14,24.10
2014,07,14,03,15,24.10
2014,07,14,03,16,24.10
2014,07,14,03,17,24.00
2014,07,14,03,18,24.00
2014,07,14,03,19,23.90
2014,07,14,03,20,23.90
2014,07,14,03,21,23.80
2014,07,14,03,22,23.80
2014,07,14,03,23,23.80
2014,07,14,03,24,23.80
2014,07,14,03,25,23.80
2014,07,14,03,26,23.70
2014,07,14,03,27,23.70
2014,07,14,03,28,23.70
2014,07,14,03,29,23.70
2014,07,14,03,30,23.70
2014,07,14,03,31,23.70
2014,07,14,03,32,23.60
2014,07,14,03,33,23.60
2014,07,14,03,34,23.60
2014,07,14,03,35,23.60
2014,07,14,03,36,23.60
2014,07,14,03,37,23.50
2014,07,14,03,38,23.50
2014,07,14,03,39,23.50
2014,07,14,03,40,23.40
2014,07,14,03,41,23.40
2014,07,14,03,42,23.40
2014,07,14,03,43,23.30
2014,07,14,03,44,23.30
2014,07,14,03,45,23.30
2014,07,14,03,46,23.30
2014,07,14,03,47,23.20
2014,07,14,03,48,23.20
2014,07,14,03,49,23.20
2014,07,14,03,50,23.20
2014,07,14,03,51,23.20
2014,07,14,03,52,23.20
2014,07,14,03,53,23.20
2014,07,14,03,54,23.10
2014,07,14,03,55,23.10
2014,07,14,03,56,23.10
2014,07,14,03,57,23.10
2014,07,14,03,58,23.10
2014,07,14,03,59,23.10
2014,07,14,04,00,23.00
2014,07,14,04,01,23.00
2014,07,14,04,02,23.00
2014,07,14,04,03,23.00
2014,07,14,04,04,23.00
2014,07,14,04,05,23.00
2014,07,14,04,06,22.90
2014,07,14,04,07,22.90
2014,07,14,04,08,22.90
2014,07,14,04,09,22.90
2014,07,14,04,10,22.90
2014,07,14,04,11,22.90
2014,07,14,04,12,22.90
2014,07,14,04,13,22.90
2014,07,14,04,14,22.90
2014,07,14,04,15,22.90
2014,07,14,04,16,22.80
2014,07,14,04,17,22.80
2014,07,14,04,18,22.80
2014,07,14,04,19,22.80
2014,07,14,04,20,22.80
2014,07,14,04,21,22.80
2014,07,14,04,22,22.80
2014,07,14,04,23,22.80
2014,07,14,04,24,22.80
2014,07,14,04,25,22.80
2014,07,14,04,26,22.80
2014,07,14,04,27,22.80
2014,07,14,04,28,22.80
2014,07,14,04,29,22.80
2014,07,14,04,30,22.80
2014,07,14,04,31,22.80
2014,07,14,04,32,22.80
2014,07,14,04,33,22.80
2014,07,14,04,34,22.80
2014,07,14,04,35,22.80
2014,07,14,04,36,22.80
2014,07,14,04,37,22.80
2014,07,14,04,38,22.80
2014,07,14,04,39,22.80
2014,07,14,04,40,22.80
2014,07,14,04,41,22.80
2014,07,14,04,42,22.80
2014,07,14,04,43,22.80
2014,07,14,04,44,22.80
2014,07,14,04,45,22.80
2014,07,14,04,46,22.70
2014,07,14,04,47,22.70
2014,07,14,04,48,22.70
2014,07,14,04,49,22.70
2014,07,14,04,50,22.70
2014,07,14,04,51,22.70
2014,07,14,04,52,22.70
2014,07,14,04,53,22.70
2014,07,14,04,54,22.70
2014,07,14,04,55,22.70
2014,07,14,04,56,22.70
2014,07,14,04,57,22.70
2014,07,14,04,58,22.70
2014,07,14,04,59,22.70
2014,07,14,05,00,22.70
2014,07,14,05,01,22.70
2014,07,14,05,02,22.70
2014,07,14,05,03,22.70
2014,07,14,05,04,22.70
2014,07,14,05,05,22.70
2014,07,14,05,06,22.70
2014,07,14,05,07,22.70
2014,07,14,05,08,22.60
2014,07,14,05,09,22.60
2014,07,14,05,10,22.60
2014,07,14,05,11,22.60
2014,07,14,05,12,22.60
2014,07,14,05,13,22.60
2014,07,14,05,14,22.60
2014,07,14,05,15,22.60
2014,07,14,05,16,22.50
2014,07,14,05,17,22.50
2014,07,14,05,18,22.50
2014,07,14,05,19,22.50
2014,07,14,05,20,22.40
2014,07,14,05,21,22.40
2014,07,14,05,22,22.40
2014,07,14,05,23,22.40
2014,07,14,05,24,22.40
2014,07,14,05,25,22.40
2014,07,14,05,26,22.40
2014,07,14,05,27,22.40
2014,07,14,05,28,22.30
2014,07,14,05,29,22.30
2014,07,14,05,30,22.30
2014,07,14,05,31,22.20
2014,07,14,05,32,22.20
2014,07,14,05,33,22.20
2014,07,14,05,34,22.10
2014,07,14,05,35,22.10
2014,07,14,05,36,22.00
2014,07,14,05,37,21.90
2014,07,14,05,38,21.80
2014,07,14,05,39,21.80
2014,07,14,05,40,21.70
2014,07,14,05,41,21.60
2014,07,14,05,42,21.60
2014,07,14,05,43,21.50
2014,07,14,05,44,21.50
2014,07,14,05,45,21.40
2014,07,14,05,46,21.40
2014,07,14,05,47,21.30
2014,07,14,05,48,21.30
2014,07,14,05,49,21.20
2014,07,14,05,50,21.20
2014,07,14,05,51,21.20
2014,07,14,05,52,21.10
2014,07,14,05,53,21.10
2014,07,14,05,54,21.10
2014,07,14,05,55,21.00
2014,07,14,05,56,21.00
2014,07,14,05,57,20.90
2014,07,14,05,58,20.90
2014,07,14,05,59,20.90
2014,07,14,06,00,21.00
2014,07,14,06,01,21.00
2014,07,14,06,02,21.00
2014,07,14,06,03,21.10
2014,07,14,06,04,21.10
2014,07,14,06,05,21.10
2014,07,14,06,06,21.10
2014,07,14,06,07,21.20
2014,07,14,06,08,21.20
2014,07,14,06,09,21.20
2014,07,14,06,10,21.20
2014,07,14,06,11,21.20
2014,07,14,06,12,21.20
2014,07,14,06,13,21.30
2014,07,14,06,14,21.30
2014,07,14,06,15,21.30
2014,07,14,06,16,21.30
2014,07,14,06,17,21.30
2014,07,14,06,18,21.30
2014,07,14,06,19,21.30
2014,07,14,06,20,21.30
2014,07,14,06,21,21.30
2014,07,14,06,22,21.30
2014,07,14,06,23,21.30
2014,07,14,06,24,21.20
2014,07,14,06,25,21.20
2014,07,14,06,26,21.20
2014,07,14,06,27,21.20
2014,07,14,06,28,21.10
2014,07,14,06,29,21.10
2014,07,14,06,30,21.10
2014,07,14,06,31,21.10
2014,07,14,06,32,21.10
2014,07,14,06,33,21.10
2014,07,14,06,34,21.10
2014,07,14,06,35,21.10
2014,07,14,06,36,21.10
2014,07,14,06,37,21.10
2014,07,14,06,38,21.10
2014,07,14,06,39,21.10
2014,07,14,06,40,21.10
2014,07,14,06,41,21.10
2014,07,14,06,42,21.20
2014,07,14,06,43,21.20
2014,07,14,06,44,21.20
2014,07,14,06,45,21.20
2014,07,14,06,46,21.20
2014,07,14,06,47,21.20
2014,07,14,06,48,21.20
2014,07,14,06,49,21.20
2014,07,14,06,50,21.30
2014,07,14,06,51,21.30
2014,07,14,06,52,21.30
2014,07,14,06,53,21.30
2014,07,14,06,54,21.30
2014,07,14,06,55,21.30
2014,07,14,06,56,21.30
2014,07,14,06,57,21.30
2014,07,14,06,58,21.40
2014,07,14,06,59,21.40
2014,07,14,07,00,21.40
2014,07,14,07,01,21.40
2014,07,14,07,02,21.40
2014,07,14,07,03,21.50
2014,07,14,07,04,21.50
2014,07,14,07,05,21.50
2014,07,14,07,06,21.50
2014,07,14,07,07,21.60
2014,07,14,07,08,21.60
2014,07,14,07,09,21.60
2014,07,14,07,10,21.60
2014,07,14,07,11,21.60
2014,07,14,07,12,21.60
2014,07,14,07,13,21.60
2014,07,14,07,14,21.60
2014,07,14,07,15,21.60
2014,07,14,07,16,21.60
2014,07,14,07,17,21.60
2014,07,14,07,18,21.70
2014,07,14,07,19,21.70
2014,07,14,07,20,21.70
2014,07,14,07,21,21.70
2014,07,14,07,22,21.80
2014,07,14,07,23,21.80
2014,07,14,07,24,21.80
2014,07,14,07,25,21.80
2014,07,14,07,26,21.80
2014,07,14,07,27,21.90
2014,07,14,07,28,21.90
2014,07,14,07,29,22.00
2014,07,14,07,30,22.00
2014,07,14,07,31,22.10
2014,07,14,07,32,22.10
2014,07,14,07,33,22.10
2014,07,14,07,34,22.20
2014,07,14,07,35,22.20
2014,07,14,07,36,22.20
2014,07,14,07,37,22.30
2014,07,14,07,38,22.30
2014,07,14,07,39,22.30
2014,07,14,07,40,22.30
2014,07,14,07,41,22.30
2014,07,14,07,42,22.40
2014,07,14,07,43,22.40
2014,07,14,07,44,22.40
2014,07,14,07,45,22.40
2014,07,14,07,46,22.50
2014,07,14,07,47,22.50
2014,07,14,07,48,22.60
2014,07,14,07,49,22.60
2014,07,14,07,50,22.70
2014,07,14,07,51,22.70
2014,07,14,07,52,22.80
2014,07,14,07,53,22.90
2014,07,14,07,54,22.90
2014,07,14,07,55,23.00
2014,07,14,07,56,23.10
2014,07,14,07,57,23.00
2014,07,14,07,58,22.90
2014,07,14,07,59,22.90
2014,07,14,08,00,22.90
2014,07,14,08,01,22.80
2014,07,14,08,02,22.70
2014,07,14,08,03,22.70
2014,07,14,08,04,22.60
2014,07,14,08,05,22.60
2014,07,14,08,06,22.50
2014,07,14,08,07,22.50
2014,07,14,08,08,22.40
2014,07,14,08,09,22.40
2014,07,14,08,10,22.50
2014,07,14,08,11,22.50
2014,07,14,08,12,22.50
2014,07,14,08,13,22.50
2014,07,14,08,14,22.40
2014,07,14,08,15,22.30
2014,07,14,08,16,22.10
2014,07,14,08,17,21.90
2014,07,14,08,18,21.80
2014,07,14,08,19,21.70
2014,07,14,08,20,21.60
2014,07,14,08,21,21.60
2014,07,14,08,22,21.60
2014,07,14,08,23,21.50
2014,07,14,08,24,21.50
2014,07,14,08,25,21.50
2014,07,14,08,26,21.50
2014,07,14,08,27,21.50
2014,07,14,08,28,21.50
2014,07,14,08,29,21.50
2014,07,14,08,30,21.50
2014,07,14,08,31,21.50
2014,07,14,08,32,21.60
2014,07,14,08,33,21.60
2014,07,14,08,34,21.60
2014,07,14,08,35,21.70
2014,07,14,08,36,21.60
2014,07,14,08,37,21.60
2014,07,14,08,38,21.60
2014,07,14,08,39,21.60
2014,07,14,08,40,21.60
2014,07,14,08,41,21.60
2014,07,14,08,42,21.60
2014,07,14,08,43,21.50
2014,07,14,08,44,21.50
2014,07,14,08,45,21.40
2014,07,14,08,46,21.40
2014,07,14,08,47,21.40
2014,07,14,08,48,21.40
2014,07,14,08,49,21.40
2014,07,14,08,50,21.40
2014,07,14,08,51,21.40
2014,07,14,08,52,21.40
2014,07,14,08,53,21.40
2014,07,14,08,54,21.40
2014,07,14,08,55,21.40
2014,07,14,08,56,21.30
2014,07,14,08,57,21.30
2014,07,14,08,58,21.30
2014,07,14,08,59,21.30
2014,07,14,09,00,21.30
2014,07,14,09,01,21.40
2014,07,14,09,02,21.40
2014,07,14,09,03,21.50
2014,07,14,09,04,21.60
2014,07,14,09,05,21.60
2014,07,14,09,06,21.70
2014,07,14,09,07,21.80
2014,07,14,09,08,21.80
2014,07,14,09,09,21.90
2014,07,14,09,10,22.10
2014,07,14,09,11,22.20
2014,07,14,09,12,22.40
2014,07,14,09,13,22.50
2014,07,14,09,14,22.70
2014,07,14,09,15,22.80
2014,07,14,09,16,22.90
2014,07,14,09,17,23.00
2014,07,14,09,18,23.10
2014,07,14,09,19,23.20
2014,07,14,09,20,23.30
2014,07,14,09,21,23.40
2014,07,14,09,22,23.50
2014,07,14,09,23,23.60
2014,07,14,09,24,23.60
2014,07,14,09,25,23.60
2014,07,14,09,26,23.60
2014,07,14,09,27,23.60
2014,07,14,09,28,23.60
2014,07,14,09,29,23.70
2014,07,14,09,30,23.70
2014,07,14,09,31,23.80
2014,07,14,09,32,23.80
2014,07,14,09,33,23.90
2014,07,14,09,34,23.90
2014,07,14,09,35,23.90
2014,07,14,09,36,23.90
2014,07,14,09,37,23.80
2014,07,14,09,38,23.80
2014,07,14,09,39,23.60
2014,07,14,09,40,23.50
2014,07,14,09,41,23.40
2014,07,14,09,42,23.40
2014,07,14,09,43,23.30
2014,07,14,09,44,23.10
2014,07,14,09,45,22.90
2014,07,14,09,46,22.70
2014,07,14,09,47,22.50
2014,07,14,09,48,22.40
2014,07,14,09,49,22.30
2014,07,14,09,50,22.40
2014,07,14,09,51,22.40
2014,07,14,09,52,22.40
2014,07,14,09,53,22.50
2014,07,14,09,54,22.50
2014,07,14,09,55,22.60
2014,07,14,09,56,22.60
2014,07,14,09,57,22.60
2014,07,14,09,58,22.70
2014,07,14,09,59,22.80
2014,07,14,10,00,22.80
2014,07,14,10,01,22.80
2014,07,14,10,02,22.80
2014,07,14,10,03,22.90
2014,07,14,10,04,23.00
2014,07,14,10,05,23.10
2014,07,14,10,06,23.20
2014,07,14,10,07,23.20
2014,07,14,10,08,23.20
2014,07,14,10,09,23.00
2014,07,14,10,10,22.90
2014,07,14,10,11,22.80
2014,07,14,10,12,22.80
2014,07,14,10,13,22.90
2014,07,14,10,14,22.90
2014,07,14,10,15,23.00
2014,07,14,10,16,23.10
2014,07,14,10,17,23.20
2014,07,14,10,18,23.30
2014,07,14,10,19,23.40
2014,07,14,10,20,23.50
2014,07,14,10,21,23.70
2014,07,14,10,22,23.80
2014,07,14,10,23,24.00
2014,07,14,10,24,24.10
2014,07,14,10,25,24.20
2014,07,14,10,26,24.20
2014,07,14,10,27,24.20
2014,07,14,10,28,24.30
2014,07,14,10,29,24.50
2014,07,14,10,30,24.50
2014,07,14,10,31,24.50
2014,07,14,10,32,24.50
2014,07,14,10,33,24.50
2014,07,14,10,34,24.60
2014,07,14,10,35,24.60
2014,07,14,10,36,24.50
2014,07,14,10,37,24.40
2014,07,14,10,38,24.30
2014,07,14,10,39,24.20
2014,07,14,10,40,24.20
2014,07,14,10,41,24.10
2014,07,14,10,42,24.00
2014,07,14,10,43,23.90
2014,07,14,10,44,23.90
2014,07,14,10,45,23.90
2014,07,14,10,46,23.80
2014,07,14,10,47,23.80
2014,07,14,10,48,23.90
2014,07,14,10,49,23.90
2014,07,14,10,50,23.90
2014,07,14,10,51,23.90
2014,07,14,10,52,24.00
2014,07,14,10,53,24.00
2014,07,14,10,54,24.10
2014,07,14,10,55,24.10
2014,07,14,10,56,24.20
2014,07,14,10,57,24.10
2014,07,14,10,58,24.00
2014,07,14,10,59,23.90
2014,07,14,11,00,23.80
2014,07,14,11,01,23.70
2014,07,14,11,02,23.60
2014,07,14,11,03,23.40
2014,07,14,11,04,23.30
2014,07,14,11,05,23.30
2014,07,14,11,06,23.30
2014,07,14,11,07,23.20
2014,07,14,11,08,23.20
2014,07,14,11,09,23.20
2014,07,14,11,10,23.20
2014,07,14,11,11,23.20
2014,07,14,11,12,23.10
2014,07,14,11,13,23.10
2014,07,14,11,14,23.10
2014,07,14,11,15,23.20
2014,07,14,11,16,23.20
2014,07,14,11,17,23.30
2014,07,14,11,18,23.40
2014,07,14,11,19,23.40
2014,07,14,11,20,23.60
2014,07,14,11,21,23.70
2014,07,14,11,22,23.70
2014,07,14,11,23,23.80
2014,07,14,11,24,23.80
2014,07,14,11,25,23.80
2014,07,14,11,26,23.90
2014,07,14,11,27,23.90
2014,07,14,11,28,24.00
2014,07,14,11,29,24.20
2014,07,14,11,30,24.30
2014,07,14,11,31,24.40
2014,07,14,11,32,24.40
2014,07,14,11,33,24.40
2014,07,14,11,34,24.50
2014,07,14,11,35,24.60
2014,07,14,11,36,24.80
2014,07,14,11,37,24.90
2014,07,14,11,38,25.00
2014,07,14,11,39,25.10
2014,07,14,11,40,25.10
2014,07,14,11,41,25.20
2014,07,14,11,42,25.30
2014,07,14,11,43,25.50
2014,07,14,11,44,25.70
2014,07,14,11,45,25.80
2014,07,14,11,46,25.90
2014,07,14,11,47,26.10
2014,07,14,11,48,26.20
2014,07,14,11,49,26.30
2014,07,14,11,50,26.30
2014,07,14,11,51,26.30
2014,07,14,11,52,26.30
2014,07,14,11,53,26.30
2014,07,14,11,54,26.20
2014,07,14,11,55,26.10
2014,07,14,11,56,26.00
2014,07,14,11,57,25.90
2014,07,14,11,58,25.90
2014,07,14,11,59,25.90
2014,07,14,12,00,25.90
2014,07,14,12,01,25.90
2014,07,14,12,02,25.90
2014,07,14,12,03,25.80
2014,07,14,12,04,25.70
2014,07,14,12,05,25.80
2014,07,14,12,06,25.70
2014,07,14,12,07,25.60
2014,07,14,12,08,25.60
2014,07,14,12,09,25.40
2014,07,14,12,10,25.30
2014,07,14,12,11,25.30
2014,07,14,12,12,25.30
2014,07,14,12,13,25.30
2014,07,14,12,14,25.40
2014,07,14,12,15,25.50
2014,07,14,12,16,25.60
2014,07,14,12,17,25.60
2014,07,14,12,18,25.60
2014,07,14,12,19,25.60
2014,07,14,12,20,25.70
2014,07,14,12,21,25.70
2014,07,14,12,22,25.80
2014,07,14,12,23,25.80
2014,07,14,12,24,25.80
2014,07,14,12,25,25.90
2014,07,14,12,26,25.90
2014,07,14,12,27,25.90
2014,07,14,12,28,25.90
2014,07,14,12,29,25.80
2014,07,14,12,30,25.90
2014,07,14,12,31,25.90
2014,07,14,12,32,25.90
2014,07,14,12,33,26.00
2014,07,14,12,34,26.10
2014,07,14,12,35,26.20
2014,07,14,12,36,26.30
2014,07,14,12,37,26.40
2014,07,14,12,38,26.50
2014,07,14,12,39,26.60
2014,07,14,12,40,26.60
2014,07,14,12,41,26.70
2014,07,14,12,42,26.70
2014,07,14,12,43,26.70
2014,07,14,12,44,26.80
2014,07,14,12,45,26.80
2014,07,14,12,46,26.80
2014,07,14,12,47,26.90
2014,07,14,12,48,27.00
2014,07,14,12,49,27.10
2014,07,14,12,50,27.10
2014,07,14,12,51,27.10
2014,07,14,12,52,27.20
2014,07,14,12,53,27.10
2014,07,14,12,54,27.10
2014,07,14,12,55,27.00
2014,07,14,12,56,27.00
2014,07,14,12,57,26.90
2014,07,14,12,58,26.80
2014,07,14,12,59,26.80
2014,07,14,13,00,26.80
2014,07,14,13,01,26.80
2014,07,14,13,02,26.70
2014,07,14,13,03,26.60
2014,07,14,13,04,26.60
2014,07,14,13,05,26.60
2014,07,14,13,06,26.50
2014,07,14,13,07,26.60
2014,07,14,13,08,26.70
2014,07,14,13,09,26.80
2014,07,14,13,10,26.80
2014,07,14,13,11,26.80
2014,07,14,13,12,26.80
2014,07,14,13,13,26.90
2014,07,14,13,14,27.00
2014,07,14,13,15,27.10
2014,07,14,13,16,27.20
2014,07,14,13,17,27.20
2014,07,14,13,18,27.20
2014,07,14,13,19,27.30
2014,07,14,13,20,27.30
2014,07,14,13,21,27.40
2014,07,14,13,22,27.50
2014,07,14,13,23,27.60
2014,07,14,13,24,27.70
2014,07,14,13,25,27.70
2014,07,14,13,26,27.80
2014,07,14,13,27,27.80
2014,07,14,13,28,27.80
2014,07,14,13,29,27.80
2014,07,14,13,30,27.80
2014,07,14,13,31,27.80
2014,07,14,13,32,27.70
2014,07,14,13,33,27.80
2014,07,14,13,34,27.80
2014,07,14,13,35,27.90
2014,07,14,13,36,27.90
2014,07,14,13,37,27.80
2014,07,14,13,38,27.80
2014,07,14,13,39,27.70
2014,07,14,13,40,27.70
2014,07,14,13,41,27.70
2014,07,14,13,42,27.70
2014,07,14,13,43,27.80
2014,07,14,13,44,27.80
2014,07,14,13,45,27.80
2014,07,14,13,46,27.80
2014,07,14,13,47,27.80
2014,07,14,13,48,27.70
2014,07,14,13,49,27.60
2014,07,14,13,50,27.60
2014,07,14,13,51,27.50
2014,07,14,13,52,27.30
2014,07,14,13,53,27.20
2014,07,14,13,54,27.10
2014,07,14,13,55,27.10
2014,07,14,13,56,27.10
2014,07,14,13,57,27.10
2014,07,14,13,58,27.20
2014,07,14,13,59,27.20
2014,07,14,14,00,27.30
2014,07,14,14,01,27.30
2014,07,14,14,02,27.40
2014,07,14,14,03,27.50
2014,07,14,14,04,27.70
2014,07,14,14,05,27.80
2014,07,14,14,06,27.90
2014,07,14,14,07,28.00
2014,07,14,14,08,28.00
2014,07,14,14,09,28.10
2014,07,14,14,10,28.20
2014,07,14,14,11,28.20
2014,07,14,14,12,28.20
2014,07,14,14,13,28.30
2014,07,14,14,14,28.20
2014,07,14,14,15,28.20
2014,07,14,14,16,28.10
2014,07,14,14,17,28.10
2014,07,14,14,18,28.00
2014,07,14,14,19,27.90
2014,07,14,14,20,27.90
2014,07,14,14,21,28.00
2014,07,14,14,22,28.00
2014,07,14,14,23,28.10
2014,07,14,14,24,28.10
2014,07,14,14,25,28.10
2014,07,14,14,26,28.00
2014,07,14,14,27,27.90
2014,07,14,14,28,27.90
2014,07,14,14,29,28.00
2014,07,14,14,30,28.00
2014,07,14,14,31,28.10
2014,07,14,14,32,28.20
2014,07,14,14,33,28.30
2014,07,14,14,34,28.30
2014,07,14,14,35,28.40
2014,07,14,14,36,28.50
2014,07,14,14,37,28.50
2014,07,14,14,38,28.30
2014,07,14,14,39,28.20
2014,07,14,14,40,28.20
2014,07,14,14,41,28.20
2014,07,14,14,42,28.20
2014,07,14,14,43,28.30
2014,07,14,14,44,28.40
2014,07,14,14,45,28.50
2014,07,14,14,46,28.60
2014,07,14,14,47,28.80
2014,07,14,14,48,28.90
2014,07,14,14,49,28.90
2014,07,14,14,50,29.00
2014,07,14,14,51,28.90
2014,07,14,14,52,28.90
2014,07,14,14,53,28.90
2014,07,14,14,54,28.90
2014,07,14,14,55,29.00
2014,07,14,14,56,29.10
2014,07,14,14,57,29.20
2014,07,14,14,58,29.30
2014,07,14,14,59,29.40
2014,07,14,15,00,29.50
2014,07,14,15,01,29.40
2014,07,14,15,02,29.40
2014,07,14,15,03,29.50
2014,07,14,15,04,29.60
2014,07,14,15,05,29.60
2014,07,14,15,06,29.60
2014,07,14,15,07,29.70
2014,07,14,15,08,29.70
2014,07,14,15,09,29.60
2014,07,14,15,10,29.60
2014,07,14,15,11,29.50
2014,07,14,15,12,29.40
2014,07,14,15,13,29.40
2014,07,14,15,14,29.30
2014,07,14,15,15,29.20
2014,07,14,15,16,29.20
2014,07,14,15,17,29.20
2014,07,14,15,18,29.20
2014,07,14,15,19,29.30
2014,07,14,15,20,29.20
2014,07,14,15,21,29.10
2014,07,14,15,22,29.10
2014,07,14,15,23,29.20
2014,07,14,15,24,29.20
2014,07,14,15,25,29.20
2014,07,14,15,26,29.20
2014,07,14,15,27,29.30
2014,07,14,15,28,29.30
2014,07,14,15,29,29.30
2014,07,14,15,30,29.30
2014,07,14,15,31,29.40
2014,07,14,15,32,29.50
2014,07,14,15,33,29.60
2014,07,14,15,34,29.50
2014,07,14,15,35,29.40
2014,07,14,15,36,29.30
2014,07,14,15,37,29.30
2014,07,14,15,38,29.30
2014,07,14,15,39,29.30
2014,07,14,15,40,29.30
2014,07,14,15,41,29.20
2014,07,14,15,42,29.20
2014,07,14,15,43,29.20
2014,07,14,15,44,29.10
2014,07,14,15,45,29.00
2014,07,14,15,46,28.90
2014,07,14,15,47,28.80
2014,07,14,15,48,28.80
2014,07,14,15,49,28.80
2014,07,14,15,50,28.80
2014,07,14,15,51,28.80
2014,07,14,15,52,28.80
2014,07,14,15,53,28.80
2014,07,14,15,54,28.70
2014,07,14,15,55,28.60
2014,07,14,15,56,28.40
2014,07,14,15,57,28.20
2014,07,14,15,58,27.90
2014,07,14,15,59,27.80
2014,07,14,16,00,27.70
2014,07,14,16,01,27.70
2014,07,14,16,02,27.70
2014,07,14,16,03,27.60
2014,07,14,16,04,27.50
2014,07,14,16,05,27.30
2014,07,14,16,06,27.20
2014,07,14,16,07,27.10
2014,07,14,16,08,27.10
2014,07,14,16,09,27.20
2014,07,14,16,10,27.30
2014,07,14,16,11,27.40
2014,07,14,16,12,27.50
2014,07,14,16,13,27.60
2014,07,14,16,14,27.80
2014,07,14,16,15,28.00
2014,07,14,16,16,28.10
2014,07,14,16,17,28.20
2014,07,14,16,18,28.30
2014,07,14,16,19,28.30
2014,07,14,16,20,28.30
2014,07,14,16,21,28.40
2014,07,14,16,22,28.40
2014,07,14,16,23,28.50
2014,07,14,16,24,28.50
2014,07,14,16,25,28.60
2014,07,14,16,26,28.70
2014,07,14,16,27,28.70
2014,07,14,16,28,28.80
2014,07,14,16,29,28.80
2014,07,14,16,30,28.80
2014,07,14,16,31,28.80
2014,07,14,16,32,28.80
2014,07,14,16,33,28.80
2014,07,14,16,34,28.80
2014,07,14,16,35,28.90
2014,07,14,16,36,28.90
2014,07,14,16,37,28.90
2014,07,14,16,38,28.90
2014,07,14,16,39,28.90
2014,07,14,16,40,28.80
2014,07,14,16,41,28.70
2014,07,14,16,42,28.70
2014,07,14,16,43,28.70
2014,07,14,16,44,28.70
2014,07,14,16,45,28.70
2014,07,14,16,46,28.70
2014,07,14,16,47,28.70
2014,07,14,16,48,28.80
2014,07,14,16,49,28.90
2014,07,14,16,50,28.80
2014,07,14,16,51,28.80
2014,07,14,16,52,28.70
2014,07,14,16,53,28.70
2014,07,14,16,54,28.70
2014,07,14,16,55,28.60
2014,07,14,16,56,28.70
2014,07,14,16,57,28.70
2014,07,14,16,58,28.80
2014,07,14,16,59,28.90
2014,07,14,17,00,29.10
2014,07,14,17,01,29.20
2014,07,14,17,02,29.30
2014,07,14,17,03,29.30
2014,07,14,17,04,29.40
2014,07,14,17,05,29.50
2014,07,14,17,06,29.50
2014,07,14,17,07,29.60
2014,07,14,17,08,29.70
2014,07,14,17,09,29.70
2014,07,14,17,10,29.80
2014,07,14,17,11,29.90
2014,07,14,17,12,29.90
2014,07,14,17,13,30.00
2014,07,14,17,14,30.10
2014,07,14,17,15,30.10
2014,07,14,17,16,30.10
2014,07,14,17,17,30.20
2014,07,14,17,18,30.20
2014,07,14,17,19,30.30
2014,07,14,17,20,30.40
2014,07,14,17,21,30.50
2014,07,14,17,22,30.50